Location: Ferintosh
(52.7647°N, 112.9692°W)
Time: 14:55:45
(UTC+00:00)

Tiros 1 despin weight - Pass Details

Date: 30 May 2024
Orbit: 577 x 621 km, 48.2° (Epoch: 19 June)

Event Time Altitude Azimuth Distance (km) Brightness Sun altitude
Rises 08:03:10 0° 265° (W) 2,826 ? -15.0°
Reaches altitude 10° 08:05:32 10° 259° (W) 1,916 ? -15.0°
Maximum altitude 08:09:42 45° 187° (S) 807 ? -14.9°
Drops below altitude 10° 08:13:50 10° 115° (ESE) 1,894 ? -14.7°
Sets 08:16:10 0° 109° (ESE) 2,788 ? -14.7°
